FW4025 Weather Reports


time (UTC)temp
F
wind
direction
speed
knots
gust
knots
rain 1hr
in
rain 24hr
in
rain mn
in
humidity
%
barometer
mb
20260506214510 75 290 1.7 5.2 0.00 0.00 0.00 45 1010.8
20260506213007 75 330 2.6 5.2 0.00 0.00 0.00 44 1010.8
20260506211503 74 178 1.7 5.2 0.00 0.00 0.00 46 1010.9
20260506210059 72 17 2.6 7.8 0.00 0.00 0.00 46 1011.2
20260506204556 71 325 4.3 7.0 0.00 0.00 0.00 46 1011.3
20260506203054 70 311 2.6 5.2 0.00 0.00 0.00 46 1011.6
20260506201555 70 325 3.5 7.0 0.00 0.00 0.00 47 1011.8
20260506200049 71 19 1.7 7.0 0.00 0.00 0.00 45 1011.9
20260506194547 69 325 1.7 7.8 0.00 0.00 0.00 45 1012.3
20260506193044 66 333 3.5 7.0 0.00 0.00 0.00 50 1012.4
20260506191537 65 105 3.5 6.1 0.00 0.00 0.00 56 1012.6
20260506190038 64 94 6.1 7.8 0.00 0.00 0.00 59 1013.0
20260506184535 63 120 4.3 7.8 0.00 0.00 0.00 58 1013.2
20260506183026 62 107 5.2 6.1 0.00 0.00 0.00 58 1013.4
20260506181522 62 104 5.2 7.0 0.00 0.00 0.00 59 1013.4
20260506180025 61 104 6.1 7.8 0.00 0.00 0.00 63 1013.1
20260506174513 60 105 5.2 7.0 0.00 0.00 0.00 63 1013.4
20260506173017 60 107 6.1 7.8 0.00 0.00 0.00 64 1013.6
20260506171505 59 106 7.0 7.8 0.00 0.00 0.00 64 1013.9
20260506170103 59 108 7.0 7.8 0.00 0.00 0.00 65 1014.1
20260506164606 58 105 7.0 8.7 0.00 0.00 0.00 67 1014.3
20260506163103 58 85 6.1 7.8 0.00 0.00 0.00 66 1014.4
20260506161558 57 99 7.0 8.7 0.00 0.00 0.00 68 1014.4
20260506160045 56 94 6.1 7.8 0.00 0.00 0.00 68 1014.6
20260506154545 55 97 7.0 8.7 0.00 0.00 0.00 68 1014.3
20260506153045 53 90 7.0 8.7 0.00 0.00 0.00 70 1014.3
20260506151538 52 86 7.0 7.8 0.00 0.00 0.00 70 1014.4
20260506150041 51 90 6.1 8.7 0.00 0.00 0.00 73 1014.5
20260506144541 51 77 7.0 8.7 0.00 0.00 0.00 73 1014.6
20260506143040 51 78 5.2 7.8 0.00 0.00 0.00 74 1014.5
20260506141535 50 78 7.0 9.6 0.00 0.00 0.00 74 1014.7
20260506140036 49 86 7.8 10.4 0.00 0.00 0.00 75 1014.7
20260506134535 47 84 7.0 10.4 0.00 0.00 0.00 80 1014.7
20260506133033 44 310 0.0 0.0 0.00 0.00 0.00 87 1014.6
20260506131544 43 242 0.0 0.0 0.00 0.00 0.00 86 1014.5
20260506130030 43 242 0.0 0.0 0.00 0.00 0.00 84 1014.5
20260506124527 43 242 0.0 0.0 0.00 0.00 0.00 83 1014.1
20260506123025 43 242 0.0 0.0 0.00 0.00 0.00 82 1014.0
20260506121522 43 242 0.0 0.0 0.00 0.00 0.00 81 1014.0
20260506120020 44 242 0.0 0.0 0.00 0.00 0.00 81 1013.9
20260506114517 44 242 0.0 0.0 0.00 0.00 0.00 80 1013.8
20260506113013 45 242 0.0 0.0 0.00 0.00 0.00 78 1013.9
20260506111620 46 242 0.0 0.0 0.00 0.00 0.00 76 1013.7
20260506110005 47 242 0.0 0.0 0.00 0.00 0.00 73 1013.6
20260506104502 47 242 0.0 0.0 0.00 0.00 0.00 69 1013.6
20260506103100 48 242 0.0 0.0 0.00 0.00 0.00 64 1013.6
20260506101605 49 242 0.0 0.0 0.00 0.00 0.00 65 1013.5
20260506100114 49 182 0.9 2.6 0.00 0.00 0.00 63 1013.4
20260506094551 50 211 1.7 2.6 0.00 0.00 0.00 61 1013.4
20260506093050 51 140 0.0 1.7 0.00 0.00 0.00 57 1013.5
20260506091544 53 94 0.9 7.8 0.00 0.00 0.00 54 1013.5
20260506090045 56 40 1.7 6.1 0.00 0.00 0.00 48 1013.3
20260506084604 56 21 2.6 7.8 0.00 0.00 0.00 46 1013.3
20260506083043 57 52 3.5 6.1 0.00 0.00 0.00 46 1013.3
20260506081546 57 54 2.6 7.0 0.00 0.00 0.00 47 1013.2
20260506073042 55 360 3.5 7.0 0.00 0.00 0.00 52 1012.8
20260506071531 52 285 0.0 2.6 0.00 0.00 0.00 60 1012.9
20260506061525 50 207 1.7 3.5 0.00 0.00 0.00 68 1012.3
20260506044545 51 312 0.0 1.7 0.00 0.00 0.00 71 1011.4
20260506043013 52 312 0.0 0.9 0.00 0.00 0.00 70 1011.0
20260506041509 53 312 0.9 2.6 0.00 0.00 0.00 67 1011.0
20260506040009 54 287 0.0 1.7 0.00 0.00 0.00 66 1011.1
20260506034518 55 287 0.0 2.6 0.00 0.00 0.00 60 1010.7
20260506033008 57 265 0.9 1.7 0.00 0.00 0.00 59 1010.5
20260506031507 58 265 0.0 1.7 0.00 0.00 0.00 54 1010.4
20260506030006 59 265 0.0 1.7 0.00 0.00 0.00 54 1010.3
20260506024506 61 316 1.7 3.5 0.00 0.00 0.00 52 1010.1
20260506023005 62 318 0.9 1.7 0.00 0.00 0.00 53 1010.0
20260506021505 63 300 0.0 2.6 0.00 0.00 0.00 49 1009.8
20260506020005 64 157 0.9 1.7 0.00 0.00 0.00 42 1009.8
20260506014504 65 127 0.9 1.7 0.00 0.00 0.00 41 1009.7
20260506013003 65 97 0.0 2.6 0.00 0.00 0.00 42 1009.7
20260506011501 66 120 0.0 1.7 0.00 0.00 0.00 37 1009.9
20260506010104 66 120 1.7 3.5 0.00 0.00 0.00 38 1010.1
20260506004629 67 111 1.7 5.2 0.00 0.00 0.00 37 1010.1
20260506003111 68 108 0.9 2.6 0.00 0.00 0.00 35 1010.3
20260506001558 69 84 1.7 3.5 0.00 0.00 0.00 36 1010.5
20260506000057 70 86 0.9 6.1 0.00 0.00 0.00 32 1010.6
20260505234625 70 103 5.2 7.8 0.00 0.00 0.00 37 1010.8
20260505233054 69 115 5.2 9.6 0.00 0.00 0.00 37 1010.8
20260505231553 70 117 6.1 10.4 0.00 0.00 0.00 40 1010.8
20260505230052 70 115 7.0 9.6 0.00 0.00 0.00 38 1011.1
20260505224552 70 122 6.1 11.3 0.00 0.00 0.00 35 1011.3
20260505223051 71 118 7.8 12.2 0.00 0.00 0.00 36 1011.3
20260505221549 71 95 8.7 13.9 0.00 0.00 0.00 34 1011.5
20260505220059 71 109 4.3 11.3 0.00 0.00 0.00 31 1011.8